London-Corbin, KY

2:25 PM EDT on August 16, 2017 (GMT -0400)
London-Corbin / McKee

Weather History for KLOZ - August, 2013

Change the Weather History Date:

Saturday, August 24, 2013

  Actual Average Record
Temperature  
Mean Temperature 75 °F 75 °F  
Max Temperature 87 °F 85 °F 99 °F (2007)
Min Temperature 63 °F 64 °F 50 °F (1997)
Degree Days  
Heating Degree Days 0 0  
Month to date heating degree days 0 0  
Since 1 June heating degree days 0 9  
Since 1 July heating degree days 0 0  
Cooling Degree Days 10 10  
Month to date cooling degree days 203 255  
Year to date cooling degree days 805 962  
Since 1 June cooling degree days 705 848  
Growing Degree Days 24 (Base 50)    
Moisture  
Dew Point 62 °F    
Average Humidity 65    
Maximum Humidity 93    
Minimum Humidity 37    
Precipitation  
Precipitation 0.00 in 0.11 in 1.16 in (2000)
Month to date precipitation 3.30 2.96  
Year to date precipitation 40.74  
Sea Level Pressure  
Sea Level Pressure 30.19 in    
Wind  
Wind Speed 3 mph (NE)    
Max Wind Speed 10 mph    
Max Gust Speed 14 mph    
Visibility 9 miles    
Events      
T = Trace of Precipitation, MM = Missing Value Source: NWS Daily Summary

Daily Weather History Graph

Daily Weather History Graph

Search for Another Location

Airport or City:

Trip Planner

Search our weather history database for the weather conditions in past years. The results will help you decide how hot, cold, wet, or windy it might be!

Date:

Astronomy

Aug. 24, 2013 Rise Set
Actual Time 7:00 AM EDT 8:15 PM EDT
Civil Twilight 6:33 AM EDT 8:42 PM EDT
Nautical Twilight 6:01 AM EDT 9:15 PM EDT
Astronomical Twilight 5:27 AM EDT 9:48 PM EDT
Moon 10:17 PM EDT (8/24) 10:52 AM EDT (8/24)
Length of Visible Light 14h 09m
Length of Day
13h 15m
Waning Gibbous, 84% of the Moon is Illuminated
Aug 24
Waning Gibbous
Aug 28
Last Quarter
Sep 5
New
Sep 12
First Quarter
Sep 19
Full

Hourly Weather History & Observations

Time (EDT) Temp. Heat Index Dew Point Humidity Pressure Visibility Wind Dir Wind Speed Gust Speed Precip Events Conditions
12:53 AM 71.1 °F - 66.0 °F 84% 30.11 in 10.0 mi Calm Calm - N/A   Clear
1:53 AM 69.1 °F - 64.9 °F 87% 30.12 in 10.0 mi Calm Calm - N/A   Clear
2:53 AM 69.1 °F - 64.9 °F 87% 30.12 in 10.0 mi Calm Calm - N/A   Clear
3:53 AM 68.0 °F - 64.0 °F 87% 30.12 in 10.0 mi Calm Calm - N/A   Clear
4:53 AM 66.9 °F - 64.0 °F 90% 30.13 in 10.0 mi Calm Calm - N/A   Clear
5:53 AM 64.9 °F - 62.1 °F 90% 30.14 in 7.0 mi Calm Calm - N/A   Clear
6:53 AM 64.9 °F - 62.1 °F 90% 30.17 in 7.0 mi Calm Calm - 0.01 in   Clear
7:02 AM 64.4 °F - 62.6 °F 94% 30.20 in 0.8 mi Calm Calm - N/A   Clear
7:36 AM 62.6 °F - 60.8 °F 94% 30.22 in 2.5 mi Calm Calm - N/A   Clear
7:44 AM 64.4 °F - 62.6 °F 94% 30.22 in 5.0 mi Calm Calm - N/A   Clear
7:53 AM 66.0 °F - 63.0 °F 90% 30.19 in 6.0 mi North 3.5 mph - N/A   Clear
8:53 AM 73.0 °F - 66.9 °F 81% 30.20 in 10.0 mi Calm Calm - N/A   Clear
9:53 AM 75.9 °F - 66.0 °F 71% 30.22 in 10.0 mi East 5.8 mph - N/A   Clear
10:53 AM 78.1 °F - 64.0 °F 62% 30.23 in 10.0 mi ENE 6.9 mph - N/A   Clear
11:53 AM 81.0 °F 81.9 °F 62.1 °F 52% 30.22 in 10.0 mi ENE 5.8 mph - N/A   Clear
12:53 PM 82.9 °F 83.7 °F 62.1 °F 49% 30.21 in 10.0 mi ESE 5.8 mph - N/A   Clear
1:53 PM 84.9 °F 85.4 °F 62.1 °F 46% 30.20 in 10.0 mi NE 5.8 mph - N/A   Clear
2:53 PM 84.9 °F 84.2 °F 57.9 °F 40% 30.19 in 10.0 mi ENE 6.9 mph - N/A   Scattered Clouds
3:53 PM 86.0 °F 84.9 °F 57.0 °F 37% 30.19 in 10.0 mi NE 9.2 mph - N/A   Clear
4:53 PM 86.0 °F 84.9 °F 57.0 °F 37% 30.19 in 10.0 mi NE 6.9 mph - N/A   Clear
5:53 PM 84.9 °F 84.4 °F 59.0 °F 41% 30.19 in 10.0 mi NE 8.1 mph - N/A   Clear
6:53 PM 82.9 °F 82.8 °F 59.0 °F 44% 30.19 in 10.0 mi NE 6.9 mph - N/A   Clear
7:53 PM 78.1 °F - 60.1 °F 54% 30.20 in 10.0 mi NE 4.6 mph - N/A   Clear
8:53 PM 73.9 °F - 61.0 °F 64% 30.20 in 10.0 mi NE 3.5 mph - N/A   Clear
9:53 PM 72.0 °F - 62.1 °F 71% 30.22 in 10.0 mi Calm Calm - N/A   Clear
10:53 PM 70.0 °F - 61.0 °F 73% 30.23 in 10.0 mi Calm Calm - N/A   Clear
11:53 PM 66.9 °F - 62.1 °F 84% 30.25 in 10.0 mi Calm Calm - N/A   Clear